Wind_Speed
7 6 5 6 7 8 8 9 9 10 11 10 9 8 9 9 9 9 9 8 7 6 5 4 3 4 4 3 3 3 2 2 3 4 6 9 9 9 10 12 13 14 15 15 15 15 15 15 14 14 13 13 13 14 13 14 13 13 13 14 14 13 13 12 12 12 11 10 9 9 9 9 9 9 9 10 10 9 8 7 7 6 6 6 4
8 7 6 6 7 8 8 9 9 10 10 9 9 8 9 9 9 9 9 8 8 6 5 4 3 4 4 4 3 3 2 2 2 3 6 9 9 9 11 13 13 14 15 14 15 15 14 14 14 13 13 13 14 14 15 14 14 14 15 15 15 14 13 13 12 12 11 10 10 11 11 10 10 10 10 10 10 10 10 9 8 7 7 6 5
7 7 7 6 7 8 8 8 9 10 10 9 9 8 8 9 9 9 9 8 7 6 5 4 4 5 5 5 4 3 3 2 2 3 6 9 9 10 12 13 14 14 14 14 14 14 14 14 13 13 13 14 14 15 15 15 15 15 15 15 15 15 14 13 13 12 11 11 11 12 12 11 11 10 10 11 11 11 10 9 8 7 7 6 5
4 5 6 7 8 9 9 8 8 9 9 9 9 8 9 9 10 9 9 8 8 7 6 5 5 5 6 5 5 4 3 3 3 4 7 9 9 10 12 13 13 13 14 13 13 13 14 13 13 14 14 14 15 15 15 15 15 16 16 15 15 15 14 13 13 13 12 13 13 14 14 12 11 10 10 11 11 11 11 11 9 8 7 6 6
5 5 6 8 10 12 10 9 9 8 8 8 8 8 9 10 10 10 9 9 8 7 7 6 6 7 7 6 5 5 4 3 3 5 7 9 9 11 13 13 13 13 13 13 13 13 13 13 14 15 15 15 15 15 15 15 15 15 15 15 15 14 13 12 12 13 14 14 15 15 14 13 12 11 11 11 12 12 12 12 11 9 7 6 6
9 8 8 8 10 13 13 10 10 9 7 8 8 8 9 10 10 10 10 9 9 8 7 7 7 8 7 7 6 5 5 4 4 5 8 9 10 11 13 13 13 13 13 13 13 13 13 14 14 15 15 15 15 15 14 14 14 14 14 14 13 13 12 11 12 13 14 15 15 15 13 13 13 13 12 12 12 12 13 13 12 11 9 7 7
12 11 10 10 10 12 14 13 11 10 8 8 8 8 9 10 10 10 10 9 9 8 8 8 8 9 8 7 7 6 5 4 4 6 8 9 10 12 13 13 13 13 13 13 12 13 14 14 15 15 15 15 14 14 14 13 13 14 13 13 13 12 12 12 13 14 14 15 14 13 12 11 11 12 12 12 13 12 13 14 14 12 11 9 7
16 15 13 13 11 12 14 15 12 10 9 9 9 9 9 9 10 10 10 9 8 8 8 8 9 9 8 8 8 7 6 5 5 7 9 10 11 13 14 14 14 13 13 12 12 13 14 14 15 16 15 15 14 14 13 13 13 13 13 13 13 13 13 13 14 15 16 15 13 12 11 10 10 11 11 11 12 13 13 14 15 14 13 12 9
19 19 17 15 12 12 14 16 13 10 9 10 10 10 10 11 11 11 11 9 8 8 8 8 9 9 8 8 8 7 6 5 6 7 9 10 13 14 14 14 14 13 12 12 13 14 14 15 16 16 15 15 14 14 14 14 14 14 14 14 14 14 15 15 15 15 16 15 14 13 11 10 10 11 10 10 11 12 13 14 14 14 14 13 11
22 22 19 17 14 12 15 16 13 11 10 10 11 12 12 12 13 12 11 10 9 8 8 9 10 10 9 9 8 8 7 6 6 8 10 11 14 15 15 14 14 12 11 12 13 14 15 16 16 16 15 15 15 15 15 15 15 15 15 16 15 16 16 16 16 17 16 15 15 15 13 12 12 11 10 10 10 11 12 14 14 13 14 14 13
24 24 21 18 15 13 16 17 14 12 11 10 11 14 14 13 13 13 12 11 10 10 9 10 10 10 10 10 9 8 7 6 7 8 10 13 15 15 15 14 13 12 11 13 14 15 16 17 17 16 15 15 15 15 15 15 15 15 16 17 16 17 16 15 17 17 16 17 16 15 14 14 14 13 12 11 11 10 11 11 12 13 13 13 13
26 25 22 19 16 14 16 18 16 15 14 14 13 13 13 13 12 11 11 11 11 10 10 11 11 11 10 10 9 8 8 7 7 9 11 14 15 15 14 14 13 12 12 14 15 16 17 17 16 16 16 16 16 16 16 15 16 16 16 17 16 17 16 15 18 17 16 17 16 16 16 15 15 14 14 13 12 11 10 10 10 11 12 13 13
28 26 23 20 18 15 17 20 18 17 17 16 15 14 14 13 12 11 11 10 10 11 11 11 12 12 11 11 10 9 8 7 8 9 12 15 15 15 14 13 12 12 13 15 15 16 17 17 16 15 16 16 16 16 15 15 15 16 16 17 17 17 16 17 18 16 17 17 15 16 16 16 16 15 15 14 13 12 10 9 9 9 10 12 12
26 27 26 22 19 17 20 22 19 19 18 17 16 16 15 14 14 12 11 10 10 11 12 11 12 13 13 13 11 10 9 7 8 11 13 15 15 15 14 12 12 12 14 15 16 16 17 17 16 15 15 16 16 15 15 14 15 15 16 17 17 17 16 18 18 16 16 16 15 16 16 16 16 16 16 15 14 13 11 9 8 8 9 10 11
26 29 29 23 20 19 22 23 21 19 18 17 17 16 16 14 14 14 13 11 8 9 12 12 12 13 14 15 13 11 9 8 9 12 14 15 15 14 13 12 12 13 13 15 16 16 16 16 15 15 15 16 16 15 14 14 14 14 15 16 17 17 16 17 17 16 15 15 15 15 15 16 16 16 16 16 14 13 13 11 8 8 8 9 10
30 30 29 26 22 20 24 25 22 20 19 18 17 16 16 14 14 14 13 11 8 8 12 14 13 13 14 14 14 12 9 8 10 13 14 15 15 14 13 12 13 13 13 14 15 16 15 15 14 15 15 15 15 14 13 13 13 13 15 16 16 17 16 16 16 15 15 14 14 14 15 16 16 15 15 16 15 14 13 12 10 8 8 8 9
33 32 30 28 25 23 26 27 24 22 20 20 18 17 17 15 15 14 12 11 10 11 12 14 15 14 15 15 15 15 11 10 11 13 15 15 15 14 13 13 13 14 13 13 14 15 15 14 14 15 16 15 14 13 12 12 12 13 14 16 16 16 15 15 15 14 15 14 14 14 14 15 15 15 15 15 15 14 14 13 11 9 9 8 8
35 33 31 30 28 26 28 30 27 25 23 22 20 19 18 17 16 14 13 12 12 12 13 14 14 15 16 16 16 15 12 12 13 15 16 16 16 14 13 13 14 14 13 13 13 14 14 14 15 15 16 15 13 12 12 11 12 12 14 15 16 15 14 14 14 15 14 15 15 14 15 16 15 14 14 14 14 14 14 13 12 10 9 8 7
34 33 32 32 32 29 29 31 29 28 26 24 23 21 20 18 17 16 14 13 13 14 15 14 13 15 17 16 16 15 14 14 15 16 17 16 16 15 14 13 14 14 14 14 14 14 14 14 16 16 15 13 12 12 12 11 11 11 13 14 15 14 14 13 14 15 15 16 15 15 17 17 15 14 13 12 12 13 13 13 12 11 9 8 7
31 31 30 31 33 32 32 34 31 29 28 26 25 23 22 20 19 19 17 15 16 16 15 14 15 18 18 17 17 17 16 16 16 17 17 17 17 15 14 14 14 15 14 14 15 15 14 15 16 16 14 12 11 12 11 11 10 11 12 13 14 14 12 12 15 16 17 17 15 17 19 19 17 14 13 12 11 11 12 12 12 11 10 8 7
28 30 31 31 32 32 34 36 32 29 28 27 25 24 22 21 20 19 18 17 18 18 16 16 19 21 20 19 19 18 17 16 16 17 18 17 17 16 15 14 14 14 14 14 15 14 14 15 15 15 14 11 11 11 11 10 10 10 11 12 13 12 12 13 15 16 17 16 16 19 20 19 18 15 13 11 11 10 10 11 12 11 10 9 7
26 32 33 32 33 34 35 34 31 29 28 27 26 24 21 19 17 17 17 19 19 18 18 20 22 22 21 20 21 20 17 14 14 16 17 17 17 16 15 14 14 14 14 14 14 13 13 14 15 15 13 11 11 10 10 9 9 10 11 12 11 12 13 13 14 15 16 17 17 19 20 20 19 15 13 11 11 10 10 10 11 11 10 9 7
23 27 27 30 34 35 34 32 30 31 30 29 27 25 21 19 17 16 16 17 18 17 18 21 21 22 21 21 22 21 17 14 14 16 15 17 18 17 16 14 14 14 13 13 13 13 13 14 14 14 13 12 12 11 10 9 8 9 10 11 11 12 12 12 14 15 16 17 17 18 20 20 20 17 14 12 11 11 11 10 10 10 10 9 7
21 24 26 30 32 34 35 34 32 31 31 29 26 24 22 20 18 16 16 17 16 16 18 20 21 22 21 20 22 21 18 15 16 16 14 16 18 17 16 15 14 14 13 13 13 12 13 14 14 13 13 12 12 11 9 9 8 8 10 11 12 12 10 11 13 15 15 16 16 18 19 20 20 18 16 13 11 12 12 11 10 10 10 9 7
21 26 30 31 32 32 34 36 34 32 31 28 25 25 23 21 19 18 17 16 15 15 18 20 21 22 20 19 21 21 19 17 18 18 16 17 18 17 17 16 15 15 14 13 12 13 13 14 14 13 13 12 12 11 9 9 9 9 11 12 11 11 10 10 12 14 14 15 16 17 19 19 20 19 16 14 13 12 13 13 11 9 10 9 7
22 25 29 30 32 33 31 32 34 32 30 28 25 23 22 20 19 19 19 17 17 17 19 20 21 21 20 19 20 20 19 18 19 20 17 17 18 18 17 16 15 15 14 13 13 13 13 14 14 13 12 11 11 11 9 9 9 10 10 10 10 10 9 9 12 13 13 14 15 17 19 19 19 19 17 15 14 13 13 13 12 10 10 9 7
21 23 28 31 33 33 30 29 31 32 30 27 25 22 20 20 20 20 20 21 20 20 20 20 21 20 19 19 19 20 19 17 17 18 18 17 18 17 16 16 16 15 15 15 14 14 14 14 14 12 12 11 11 11 9 8 8 9 9 9 9 9 8 9 11 12 13 14 14 16 18 18 19 18 16 15 14 14 13 13 13 11 10 10 7
21 23 28 30 31 34 31 28 29 32 31 27 25 23 21 20 19 18 19 19 19 20 20 20 20 19 18 18 19 20 20 18 15 15 17 18 18 17 17 17 17 17 16 16 15 15 14 14 13 12 12 11 10 10 10 8 7 8 8 7 8 8 8 8 10 12 13 14 13 15 18 17 18 17 15 15 15 14 13 14 13 11 10 9 7
19 21 27 28 29 33 33 28 27 28 28 28 27 24 22 21 19 17 17 17 17 18 18 18 19 19 18 18 18 18 19 18 16 15 16 18 18 18 18 19 19 18 18 17 16 16 15 14 14 12 12 11 10 10 9 8 7 7 6 6 6 7 7 8 10 11 12 14 12 14 17 17 17 17 15 15 15 14 14 14 14 11 10 10 7
19 20 24 27 26 30 32 27 24 25 25 28 28 24 21 20 19 18 18 17 17 16 17 17 18 19 18 18 17 17 18 18 17 14 15 16 17 18 19 19 19 19 19 19 18 16 16 15 14 13 12 11 10 10 9 8 7 6 5 5 5 6 7 8 10 10 11 13 12 13 16 15 16 16 15 15 14 14 15 15 15 13 12 10 8
21 22 23 25 25 29 30 26 24 26 27 27 29 28 24 21 19 19 19 17 17 16 16 16 17 18 18 17 16 16 17 18 17 15 14 15 16 18 19 20 20 20 20 19 18 17 16 15 14 13 12 10 10 10 9 8 7 5 4 4 5 5 7 8 9 10 11 13 12 12 14 14 15 14 15 15 13 13 15 15 15 15 14 12 9
24 24 24 24 25 28 27 25 25 25 27 28 28 30 29 25 21 20 20 18 18 17 16 16 16 17 17 17 16 15 15 16 17 16 13 13 15 17 19 20 20 20 20 20 19 18 17 15 14 13 11 10 10 9 8 8 7 5 4 3 4 5 7 8 9 9 10 12 12 11 12 13 14 14 15 15 13 13 14 14 14 15 15 13 10
25 25 25 25 25 29 27 25 24 23 25 27 27 28 30 30 24 21 21 20 19 18 17 17 16 16 17 16 15 15 15 16 17 16 13 12 15 17 18 20 21 21 21 20 19 18 17 16 15 13 12 10 9 9 8 7 7 6 4 2 3 4 6 7 9 10 10 12 13 13 12 11 12 13 14 15 13 13 14 13 13 14 15 14 11
27 25 26 27 25 28 29 25 24 24 25 26 26 28 30 30 27 22 21 20 20 19 18 18 17 17 17 16 16 16 15 16 16 15 14 13 15 16 17 19 21 22 22 21 20 19 18 17 15 14 12 10 10 9 8 7 7 6 5 3 2 4 5 7 9 10 10 12 14 13 11 9 11 12 14 14 14 14 14 12 11 13 14 13 11
29 26 26 28 26 29 33 29 24 23 23 24 25 27 31 30 28 27 23 21 20 20 20 19 18 18 17 16 16 16 16 15 16 16 15 14 15 17 18 18 20 22 22 23 22 20 19 18 17 15 13 12 10 9 8 7 6 6 5 3 2 3 4 6 9 10 11 12 14 12 9 7 9 12 13 14 14 15 15 13 11 11 13 13 10
28 28 27 27 28 32 38 33 26 24 23 23 25 26 30 30 29 30 27 24 23 21 21 20 19 19 17 16 17 17 16 15 16 16 15 14 15 16 17 17 19 21 23 23 23 22 20 19 18 16 14 13 12 10 9 8 7 5 4 3 1 1 3 5 8 9 11 12 14 14 11 9 10 11 12 13 13 14 15 14 11 9 10 12 11
26 28 26 25 27 32 38 34 28 28 25 23 26 27 28 29 29 29 26 25 24 22 21 21 20 20 17 17 18 18 16 15 15 15 14 15 15 15 16 15 16 19 21 22 23 23 21 20 19 18 16 14 13 12 10 10 8 6 5 3 2 2 3 5 7 9 10 11 13 14 13 11 10 10 11 12 12 13 15 14 12 10 9 11 11
29 30 28 26 27 31 36 33 28 30 27 22 24 25 26 27 25 24 24 23 23 24 23 22 21 20 19 18 19 20 18 15 15 15 15 15 15 15 15 14 16 18 19 21 22 23 22 21 20 19 18 17 15 13 11 11 9 7 6 5 4 3 3 5 6 8 9 10 12 12 11 11 9 9 9 11 11 12 14 13 12 11 10 10 9
30 33 33 31 30 32 34 31 27 29 28 25 26 24 23 23 20 19 20 20 20 22 23 23 22 21 21 19 20 21 20 17 16 17 17 17 17 16 16 16 17 17 17 19 21 22 22 22 21 21 19 18 17 14 13 12 10 8 7 6 5 4 4 5 6 7 8 9 11 11 9 9 9 9 9 9 10 11 13 13 12 11 10 10 9
31 33 34 35 35 35 34 32 28 28 28 29 28 24 21 18 13 13 12 12 14 18 21 23 23 23 22 21 21 21 21 20 20 20 21 22 22 20 18 18 19 17 16 17 18 20 22 22 22 21 21 20 18 16 14 13 11 9 8 8 7 5 5 5 6 6 8 9 10 9 8 8 8 8 8 8 9 10 11 11 12 12 11 10 10
31 32 32 33 34 33 32 30 28 26 26 26 25 22 17 14 12 11 9 8 10 14 17 19 21 22 23 23 23 22 22 22 22 23 24 25 25 24 22 22 22 19 16 15 16 18 21 23 23 22 22 21 20 18 15 14 12 10 9 10 8 7 6 6 6 6 8 9 9 9 8 7 7 6 6 7 8 9 10 10 10 11 10 9 10
28 29 27 28 29 29 28 27 26 24 22 21 20 18 15 14 15 14 12 12 13 13 14 16 17 19 22 23 23 24 24 24 24 24 25 26 26 25 24 25 26 23 18 16 15 17 20 23 24 24 24 23 22 19 17 15 14 12 10 10 9 8 7 7 6 6 7 8 9 8 6 6 6 6 5 6 7 8 9 8 8 10 10 8 8
24 26 25 23 25 27 27 27 28 25 22 22 21 18 16 17 18 18 18 17 17 17 16 16 17 17 19 22 23 24 25 26 26 26 26 27 27 26 25 26 29 27 21 18 16 16 18 21 23 24 25 25 23 20 18 18 17 14 11 11 11 9 8 8 7 6 7 8 9 8 7 5 5 6 5 5 6 6 7 7 7 9 9 7 6
21 24 26 26 26 25 23 25 30 30 25 26 25 23 21 22 21 21 22 22 22 22 21 21 20 20 20 21 22 23 25 26 27 27 27 28 28 27 26 26 29 28 23 20 17 16 17 19 22 25 26 26 25 22 19 20 19 15 13 13 12 9 10 9 7 7 8 9 10 10 8 6 4 4 4 3 4 5 6 6 7 7 8 7 6
21 22 25 28 30 30 27 26 30 33 31 30 29 28 27 27 27 25 24 24 25 25 25 24 22 21 20 20 20 22 23 24 26 28 29 29 28 27 26 26 28 29 26 22 19 18 17 18 20 23 26 27 26 23 21 21 20 17 16 15 12 11 12 10 7 8 8 8 11 11 10 8 5 4 3 3 3 4 5 6 6 6 6 6 6
24 24 25 27 31 34 34 34 33 34 36 34 33 33 32 33 32 28 26 26 27 27 26 24 22 22 21 21 21 22 23 23 26 29 30 30 29 28 27 27 28 31 31 26 21 20 19 18 20 22 25 27 27 25 23 23 22 19 18 16 14 14 12 9 9 10 9 9 11 12 12 10 7 5 3 2 3 3 4 4 5 5 5 5 5
26 27 26 27 30 34 37 39 39 37 37 36 36 37 37 36 34 32 31 29 29 29 28 26 24 23 23 23 23 23 24 25 26 30 32 32 31 30 29 29 30 33 35 31 25 24 21 20 21 21 23 27 28 27 25 24 23 21 19 17 17 17 14 11 11 11 10 10 11 12 12 11 8 6 4 3 3 3 3 3 4 4 4 4 4
28 29 30 29 30 32 36 40 42 41 41 40 40 41 41 40 37 36 36 33 32 31 30 28 27 26 26 26 25 25 26 26 27 30 32 33 33 33 32 32 32 34 37 35 30 27 24 22 21 20 22 26 29 29 27 25 25 23 21 20 19 18 16 13 11 11 10 10 11 12 12 11 9 8 6 5 4 3 3 3 3 3 2 3 3
31 31 32 33 33 33 35 38 41 43 43 43 43 43 44 43 42 42 41 37 35 33 31 31 30 31 31 30 29 28 28 28 28 30 32 34 34 35 35 35 35 34 36 36 33 30 27 24 22 20 22 25 28 30 29 27 26 25 23 22 21 19 17 14 11 10 9 10 12 12 11 10 9 8 7 7 5 4 3 4 4 4 2 2 2
36 35 34 36 36 36 36 37 39 41 42 42 42 43 44 44 45 46 44 42 40 37 35 34 33 33 34 33 32 31 30 30 30 30 32 33 35 36 37 38 38 36 36 36 34 31 28 25 23 22 23 25 27 30 31 28 28 27 26 25 23 21 19 16 12 10 10 10 12 12 11 9 8 8 8 7 7 6 5 5 5 4 3 2 2
37 38 38 38 39 39 40 39 39 39 41 41 41 42 44 45 46 47 46 45 43 40 39 37 35 35 35 34 34 33 33 33 32 32 33 34 36 37 38 39 40 39 37 37 37 34 30 27 26 24 24 26 27 30 31 30 29 29 28 27 25 22 21 18 15 12 12 11 12 13 12 9 7 8 8 8 8 7 6 6 5 5 4 3 2
Wind_Direction
248 232 249 267 275 278 274 272 262 255 255 243 223 195 174 168 163 158 150 147 145 144 138 138 158 176 182 178 169 150 147 125 99 100 101 100 98 100 108 113 114 111 107 105 104 104 105 105 103 101 100 97 95 93 90 87 84 81 78 76 76 74 73 73 73 72 70 70 72 75 73 72 70 70 70 70 70 69 71 76 81 84 88 92 89
250 241 243 255 265 268 269 267 259 253 252 241 227 203 178 170 167 163 157 155 153 152 149 151 171 181 185 187 179 166 164 143 117 115 109 104 103 107 113 116 114 111 109 108 106 108 108 106 105 101 99 96 94 93 91 89 85 81 78 77 77 76 74 72 73 73 72 72 74 76 74 71 70 70 70 70 69 70 72 73 78 81 86 89 87
259 262 254 253 262 261 264 260 254 252 249 241 229 204 179 173 169 167 163 160 159 158 157 163 178 186 191 192 185 178 174 165 147 128 115 108 107 111 115 116 115 114 112 109 108 110 109 107 104 101 98 95 94 92 89 86 82 80 78 77 77 77 76 75 76 76 77 76 75 74 71 68 68 68 69 70 70 72 75 77 81 86 91 92 88
254 265 273 274 272 260 256 250 245 246 247 242 230 204 180 175 171 170 167 165 164 162 164 172 184 191 196 196 190 185 182 181 169 135 118 111 110 114 117 118 117 116 112 111 111 110 109 108 104 101 99 96 94 90 87 83 81 80 79 78 78 78 79 79 80 81 80 77 74 71 68 67 67 65 67 69 70 71 73 74 76 80 86 93 90
264 254 272 282 278 264 249 239 233 234 239 240 228 204 181 175 174 171 170 169 167 168 169 178 189 195 199 198 193 190 190 191 173 138 121 114 113 116 119 121 120 118 115 113 112 111 111 108 104 103 100 97 93 89 86 84 84 83 81 80 79 80 80 81 82 81 78 76 71 68 65 64 65 63 64 67 68 70 71 71 72 73 77 86 92
269 257 268 280 281 267 248 233 224 222 222 228 220 197 182 176 176 172 172 172 170 172 172 182 191 196 200 198 197 195 197 193 170 140 123 117 117 121 125 125 125 122 118 115 113 113 111 108 105 104 102 98 93 89 86 85 84 82 80 79 79 79 78 79 79 77 72 68 66 66 62 57 58 59 60 63 66 68 70 70 70 71 71 76 90
266 265 273 279 282 271 251 237 222 215 207 210 208 188 180 177 175 173 176 173 171 175 176 185 192 196 199 197 199 200 200 191 165 141 125 121 122 127 130 130 129 125 121 117 116 114 110 109 107 106 103 98 92 88 85 82 80 77 76 76 77 75 75 74 73 73 70 66 64 65 63 55 55 56 56 59 63 66 69 69 66 65 65 64 74
264 268 272 272 278 271 251 240 223 209 200 194 190 179 177 176 176 176 177 176 172 175 180 185 193 197 199 198 200 202 200 187 161 140 128 124 129 133 134 135 132 127 123 120 118 114 113 112 110 107 102 96 92 87 84 81 78 77 77 76 75 74 74 71 69 69 69 69 69 67 65 59 54 56 54 57 61 62 66 67 63 61 62 59 62
259 265 268 266 269 268 250 239 224 203 196 189 181 175 177 176 176 179 175 176 177 177 183 188 194 197 199 200 201 203 196 181 161 141 131 130 135 138 139 137 132 128 126 122 119 118 117 115 112 107 101 96 92 89 87 85 84 82 80 78 75 74 71 69 68 66 66 68 68 66 65 62 56 55 53 56 60 59 61 63 61 59 60 59 59
256 260 263 262 260 262 247 234 219 197 188 188 182 174 176 177 176 179 171 170 181 181 186 191 194 195 198 200 202 203 192 177 161 141 135 136 140 142 142 138 133 132 128 122 121 121 119 116 112 107 101 97 94 92 90 88 86 82 80 77 74 72 69 69 67 63 64 64 61 60 60 60 57 54 52 55 60 59 59 59 59 58 57 58 57
254 256 257 256 252 257 244 230 214 193 181 181 183 175 173 178 177 178 173 171 183 185 188 192 193 195 196 199 203 201 189 178 160 142 139 142 144 145 143 139 135 133 127 122 122 122 120 118 114 107 103 99 97 94 91 87 83 80 77 75 73 72 70 69 66 61 61 61 58 57 55 56 54 52 51 54 59 60 60 59 57 56 56 57 57
252 251 252 247 245 254 239 226 209 188 178 178 179 176 175 177 176 178 178 175 184 185 187 193 192 193 196 199 203 199 187 177 160 145 144 145 148 147 144 140 137 133 124 122 124 124 122 120 115 109 106 103 100 95 90 85 81 77 75 74 72 71 69 68 66 62 60 60 57 56 54 53 52 50 50 53 56 59 58 57 56 55 55 56 57
247 246 247 240 240 244 230 222 205 184 177 178 176 173 176 177 175 179 180 177 184 185 187 193 191 190 192 199 201 194 186 177 160 148 147 149 151 149 146 143 138 132 124 124 128 128 126 123 117 113 111 107 101 96 90 84 79 76 75 74 71 69 67 66 66 61 59 59 57 55 52 52 52 49 48 50 52 55 55 54 53 54 53 54 56
241 241 240 234 237 238 227 220 202 184 176 179 178 174 177 181 180 181 182 179 184 188 187 193 194 191 189 193 195 187 182 176 162 152 151 152 154 151 149 146 138 132 126 127 133 133 129 126 121 117 114 108 103 97 91 83 77 75 75 73 69 68 64 62 62 59 56 55 55 53 49 48 48 47 45 46 48 49 50 50 51 53 52 52 53
232 234 235 228 231 235 227 217 200 186 177 178 182 177 177 183 185 182 179 175 184 195 190 190 196 199 194 190 185 180 180 175 164 155 154 156 156 154 152 148 139 133 130 131 136 138 134 131 126 121 116 109 104 98 91 82 75 75 74 71 67 66 62 59 57 54 52 50 51 50 47 46 44 43 41 42 44 45 46 45 49 52 52 51 51
230 231 232 224 222 226 223 215 200 186 178 178 181 178 176 183 190 187 181 175 184 201 195 190 192 203 205 195 180 174 177 176 168 159 158 159 158 157 155 149 140 134 133 134 138 141 140 138 133 126 119 111 106 100 91 81 76 75 74 69 65 63 61 60 55 49 49 49 47 44 42 43 41 40 38 38 40 42 42 42 47 52 52 52 51
230 231 227 220 217 220 220 211 197 185 181 180 181 180 178 185 191 192 188 180 184 197 204 193 186 198 208 201 181 171 173 177 172 165 163 161 160 160 157 150 141 137 137 138 142 144 146 147 142 133 123 117 111 102 92 84 80 78 74 69 64 60 59 60 54 47 46 47 45 41 39 39 38 36 35 35 36 38 39 40 45 50 53 54 54
230 230 225 217 211 215 219 210 194 184 183 181 181 180 181 187 189 192 188 182 184 195 206 197 191 199 205 202 186 173 174 181 176 169 167 164 163 162 159 153 145 142 142 141 145 148 150 152 148 139 128 122 115 103 94 88 83 80 75 70 64 58 58 57 51 48 44 45 45 40 37 37 34 32 30 30 32 34 36 38 43 49 53 56 58
232 229 221 212 207 209 214 210 195 184 184 183 182 181 184 188 187 187 184 181 186 195 199 195 202 207 204 202 192 180 176 181 177 172 170 167 165 165 163 157 150 147 146 146 148 151 154 153 149 143 133 127 117 105 98 91 85 81 75 71 65 58 56 51 46 45 41 43 43 38 36 34 32 29 25 25 28 29 31 34 40 48 53 55 60
230 222 209 202 203 205 209 208 197 186 185 183 183 183 184 186 186 185 183 185 187 191 194 201 211 207 204 201 193 183 177 178 177 175 173 171 169 168 167 161 155 152 150 150 151 154 155 153 149 146 139 130 119 109 101 94 88 82 76 70 65 58 54 46 41 39 38 39 38 37 36 32 31 29 24 20 24 26 26 29 37 45 51 55 60
219 209 199 195 198 203 207 205 197 190 185 183 185 185 183 184 186 187 188 190 188 188 195 213 216 205 200 196 190 184 180 180 179 178 176 175 172 170 171 165 160 157 154 154 154 154 154 151 150 149 144 134 122 112 103 97 91 84 75 68 62 55 47 39 37 36 34 34 32 36 36 32 29 29 27 21 22 23 24 26 32 43 50 54 60
215 205 197 192 193 198 205 201 193 191 186 184 185 184 184 182 184 188 190 191 190 190 201 214 214 207 199 191 188 185 183 187 184 181 179 178 176 174 174 169 164 161 158 156 156 156 155 152 151 152 148 137 127 117 109 102 94 85 75 68 60 50 41 32 33 32 30 29 30 34 34 32 30 31 29 23 27 26 24 26 30 40 48 53 63
226 216 205 200 194 191 198 199 192 190 190 188 184 182 184 179 182 189 190 195 195 198 210 214 214 211 201 192 189 185 186 192 186 183 182 180 179 177 175 173 167 165 163 159 158 158 158 157 154 155 150 140 134 127 120 113 103 90 76 68 58 50 40 26 28 28 26 27 27 32 34 33 32 34 33 28 34 33 27 27 29 39 46 53 67
233 227 219 215 206 192 189 195 195 192 192 190 185 183 185 182 184 189 190 196 197 205 215 216 216 211 202 196 191 186 188 194 188 181 183 184 182 180 177 176 172 170 169 164 162 160 159 160 161 158 150 144 140 136 131 123 115 96 76 65 56 50 38 20 23 24 23 25 25 31 34 33 32 34 36 33 36 35 32 30 30 39 45 53 73
229 225 220 216 215 207 192 190 192 195 194 188 187 189 189 185 186 188 188 191 194 207 216 217 217 210 201 198 196 192 191 192 187 180 183 186 184 184 180 179 177 174 172 168 167 164 162 163 163 159 152 150 145 142 138 125 114 94 75 64 56 45 31 16 19 20 19 23 26 32 35 32 31 33 37 36 34 35 35 33 31 39 46 54 74
228 228 223 217 219 217 207 195 187 193 197 188 189 194 192 186 186 187 187 191 197 206 214 216 215 208 202 199 199 201 199 196 190 182 183 187 187 187 184 182 180 177 174 171 172 169 167 165 162 160 155 153 149 148 140 122 107 92 76 63 54 40 25 13 15 17 16 23 28 34 37 33 31 34 37 34 35 40 39 37 37 38 44 53 71
232 234 226 219 221 219 217 211 192 190 197 194 192 193 191 187 187 189 191 194 198 204 209 213 214 210 206 203 202 204 204 204 198 188 184 186 188 187 186 186 183 180 178 174 176 175 172 169 164 162 154 151 151 147 135 120 108 93 81 66 54 38 21 10 14 14 12 20 29 37 39 35 32 35 38 34 37 43 40 41 43 40 44 52 67
231 231 221 211 213 216 218 221 209 196 192 196 198 193 191 190 188 190 194 196 196 199 202 207 212 211 209 208 205 204 205 206 204 197 191 186 186 186 187 188 184 183 182 179 182 180 177 174 170 167 157 150 147 140 129 121 114 96 84 69 57 37 13 8 15 13 9 14 25 38 41 37 33 36 40 36 37 42 39 40 45 46 48 52 65
215 219 218 208 204 212 217 220 223 213 195 194 200 197 193 192 192 192 195 198 196 197 198 203 209 210 209 209 207 206 206 205 204 205 202 193 187 188 190 191 188 186 187 185 185 184 182 180 175 171 161 151 141 136 130 123 117 103 88 70 59 36 7 5 15 12 10 12 21 38 43 39 34 36 39 35 37 42 38 39 47 54 53 53 65
204 208 214 211 204 209 216 216 222 228 215 201 198 196 197 197 194 195 198 199 199 199 198 200 204 208 210 209 208 208 207 206 205 206 207 202 194 192 192 195 194 191 192 190 188 189 189 185 179 174 165 152 139 134 132 127 119 107 95 77 58 32 7 4 11 9 10 11 17 37 45 43 37 37 40 35 38 46 41 41 49 54 54 56 67
202 201 202 204 205 209 212 210 212 222 225 216 202 194 197 202 198 196 197 198 198 199 198 198 200 204 208 210 209 209 208 207 207 205 203 206 204 198 194 197 199 197 196 196 193 194 194 190 184 178 169 156 141 135 135 132 127 115 98 81 60 30 8 2 6 6 7 7 13 35 44 46 42 38 41 37 40 48 43 43 48 51 54 60 70
199 196 192 194 203 209 204 201 207 215 223 224 215 201 197 198 198 197 196 195 196 196 198 197 197 198 203 209 209 208 211 209 209 205 197 204 212 207 200 198 201 202 201 201 197 196 198 195 189 184 176 165 151 142 140 141 139 131 114 87 63 28 7 360 1 2 4 1 6 36 47 48 45 38 39 39 41 46 43 43 47 49 55 62 68
197 191 186 187 197 207 202 197 204 214 222 224 223 216 207 198 195 198 197 194 194 194 197 197 195 195 197 204 209 210 212 211 210 205 196 206 215 212 207 202 203 205 206 205 202 200 201 199 196 192 183 174 164 156 152 153 150 143 139 112 67 25 5 0 359 359 3 355 359 28 43 46 48 41 38 40 42 43 41 43 47 49 54 60 64
192 185 181 181 185 201 203 196 202 215 223 227 228 228 223 207 196 200 201 194 194 193 194 196 196 196 197 202 207 210 210 208 208 204 201 209 214 211 210 209 207 207 209 209 207 204 203 202 202 199 190 184 176 170 167 166 163 155 151 135 74 31 5 359 359 358 1 354 355 21 38 40 47 45 39 41 44 42 41 45 50 53 53 56 61
185 183 182 179 171 186 195 195 204 215 221 229 230 230 232 223 205 202 201 196 195 194 193 194 195 197 200 201 201 203 205 207 206 200 201 209 214 210 208 214 213 209 211 212 211 209 206 205 206 205 198 194 188 184 181 179 181 168 155 143 90 32 3 356 357 357 358 354 350 9 36 45 49 47 40 41 41 39 41 45 52 59 55 51 55
183 181 180 177 165 175 189 193 201 208 212 221 224 226 236 236 223 212 202 196 194 194 196 193 194 197 199 199 194 195 200 207 208 201 202 208 213 213 209 214 218 216 214 214 215 213 209 207 208 210 206 204 201 197 192 190 193 185 168 158 140 360 340 345 352 352 354 352 347 355 16 36 46 43 40 41 38 35 37 42 49 55 53 46 46
194 186 175 168 159 169 186 191 192 197 201 209 217 223 231 232 230 223 212 204 193 192 198 194 192 195 197 199 193 193 199 204 208 204 204 206 210 215 213 214 220 224 222 218 218 217 212 209 210 212 211 211 210 204 199 197 198 196 189 186 199 257 304 327 341 343 345 346 345 352 2 14 35 41 36 39 37 34 34 39 45 44 49 46 40
208 200 181 166 158 163 179 186 185 189 193 198 206 211 216 221 226 222 214 207 192 188 196 195 193 195 197 200 195 196 201 203 206 205 205 208 210 214 215 218 224 228 229 225 223 221 217 212 211 213 214 215 216 208 203 203 202 202 202 206 218 247 286 312 328 334 338 341 342 350 357 358 21 39 35 36 36 34 33 36 42 42 48 48 41
208 203 189 176 167 164 173 179 178 185 188 187 194 200 205 213 222 217 207 200 189 187 192 191 193 197 198 201 199 200 204 205 209 211 212 215 216 217 215 220 229 231 232 231 229 226 222 216 213 213 214 217 219 213 208 208 206 204 211 218 226 245 278 304 319 323 327 335 335 343 356 352 3 30 34 34 34 34 32 32 36 40 44 47 48
204 203 196 184 173 166 170 175 176 183 189 190 196 204 205 205 212 219 211 197 190 193 194 194 195 199 200 202 202 204 207 210 213 216 220 223 225 228 227 227 231 231 232 235 233 230 227 222 216 214 214 218 221 217 211 212 210 206 217 228 234 246 269 294 309 314 317 328 332 339 354 349 350 19 30 30 34 35 34 30 28 33 38 45 50
205 206 206 199 184 170 168 175 181 190 199 206 211 210 204 204 210 217 218 206 201 202 203 202 201 202 203 202 204 206 209 214 217 220 223 226 230 234 235 233 233 232 231 235 235 231 229 225 220 216 215 217 221 219 215 214 215 212 221 233 240 248 266 285 296 303 311 323 330 335 349 349 342 3 26 30 31 33 36 29 22 29 37 44 47
209 208 211 212 204 192 181 179 187 200 214 225 232 225 208 209 212 211 213 211 209 207 208 210 208 208 207 205 207 208 210 215 219 223 225 226 230 232 235 234 233 233 228 230 234 232 230 227 222 218 216 218 222 221 218 220 221 218 222 237 247 251 262 272 278 289 300 312 320 326 340 344 334 344 18 29 26 30 36 29 17 24 34 43 45
217 215 215 212 211 212 205 196 195 205 226 239 247 248 232 220 212 208 210 209 208 208 208 212 212 214 213 212 212 211 212 216 220 225 227 228 229 229 232 230 228 231 227 225 231 232 231 229 225 221 218 219 223 222 220 225 225 220 222 239 248 252 262 264 263 275 290 301 308 313 320 325 328 340 1 16 16 21 31 28 17 22 30 38 43
227 226 223 215 211 213 213 213 208 207 225 243 248 249 243 233 220 210 210 209 209 208 206 209 211 212 214 214 217 217 216 218 221 225 228 231 230 228 230 227 225 228 227 224 229 231 231 231 227 224 222 221 224 224 222 228 229 222 224 235 243 255 266 267 267 275 285 296 302 304 304 302 314 329 336 356 6 6 19 24 19 23 27 31 40
233 232 228 222 218 213 206 208 212 212 223 239 245 246 244 239 229 219 215 213 213 213 212 213 215 217 219 219 221 223 224 225 225 227 229 230 230 229 228 225 225 228 229 225 228 233 233 230 228 226 225 224 226 226 225 229 232 228 228 232 238 251 258 261 272 279 285 295 298 298 294 290 295 301 308 340 350 344 3 16 15 24 25 25 40
238 236 233 228 223 220 212 206 208 212 222 235 242 244 244 240 235 228 223 220 220 224 226 226 228 231 231 230 230 231 234 236 231 229 230 230 230 227 225 225 225 227 230 230 229 236 237 231 228 227 226 226 227 228 227 230 232 232 233 233 238 247 251 254 268 277 286 293 292 290 289 285 285 287 293 311 311 316 349 3 1 20 28 25 40
240 239 237 233 227 224 221 215 211 211 218 230 239 242 242 240 236 229 226 225 225 228 232 232 234 237 237 236 238 241 242 243 237 232 230 230 230 227 224 224 224 223 229 233 232 236 237 233 229 227 227 228 228 228 229 231 234 235 236 237 240 246 251 256 264 274 283 287 285 285 287 284 282 283 280 276 279 294 324 342 339 4 27 26 40
240 239 239 237 232 227 224 222 220 218 217 222 229 235 238 239 236 231 229 227 224 224 227 229 231 234 235 235 237 241 243 243 240 235 231 230 230 229 225 225 225 223 226 232 234 232 233 233 231 227 228 230 229 230 231 232 235 237 237 240 243 247 252 255 261 270 277 282 284 288 289 285 280 279 275 268 265 275 296 302 302 325 9 21 37
241 239 239 238 236 232 229 226 226 226 224 223 224 228 232 235 235 235 233 229 225 223 224 225 227 231 234 234 234 236 238 238 236 233 231 231 231 230 228 226 226 226 227 230 231 228 229 235 234 228 229 231 230 232 233 232 236 238 239 241 244 248 251 251 254 263 269 275 283 289 288 284 279 272 266 266 263 259 264 267 273 291 325 356 15
244 241 239 238 238 236 234 231 229 229 229 229 228 228 230 231 232 234 233 231 229 226 224 223 224 229 233 234 235 235 236 236 234 231 230 230 231 231 229 228 228 228 229 228 228 227 228 235 237 230 229 231 230 232 234 233 235 238 240 243 245 247 249 250 251 257 264 270 278 285 286 284 278 266 255 253 255 256 257 256 260 276 299 321 337
247 243 240 238 237 237 236 235 234 232 231 231 231 230 231 231 232 233 232 231 230 227 226 225 224 228 232 234 235 236 236 236 235 232 230 230 231 231 231 230 229 229 228 228 228 229 228 233 238 234 230 231 230 230 233 234 236 238 241 243 245 247 250 252 253 255 259 266 273 280 283 277 268 264 256 248 245 246 255 258 256 266 283 300 311
Height
3156 3156 3156 3157 3158 3158 3158 3158 3158 3159 3159 3159 3159 3159 3158 3158 3158 3159 3159 3160 3162 3162 3163 3164 3164 3165 3165 3166 3166 3166 3167 3167 3167 3167 3168 3168 3168 3169 3169 3169 3170 3170 3170 3170 3171 3171 3171 3171 3172 3172 3172 3173 3173 3173 3173 3172 3172 3172 3172 3171 3171 3170 3170 3170 3170 3170 3169 3170 3169 3169 3169 3168 3168 3167 3167 3166 3165 3165 3164 3163 3163 3163 3162 3162 3162
3155 3155 3156 3156 3157 3157 3157 3157 3157 3158 3158 3159 3159 3158 3158 3158 3159 3159 3160 3161 3162 3163 3163 3164 3164 3165 3165 3166 3166 3167 3167 3168 3168 3168 3168 3169 3169 3170 3170 3170 3171 3171 3171 3171 3172 3172 3172 3172 3173 3173 3173 3174 3174 3174 3173 3173 3173 3173 3172 3172 3172 3171 3171 3171 3170 3170 3170 3170 3170 3170 3169 3169 3169 3168 3167 3166 3166 3165 3164 3164 3163 3163 3162 3162 3162
3154 3155 3155 3155 3156 3157 3157 3157 3157 3158 3158 3158 3158 3158 3158 3159 3159 3160 3160 3161 3162 3163 3164 3164 3165 3165 3166 3166 3167 3167 3168 3168 3169 3169 3169 3169 3170 3170 3171 3171 3171 3172 3172 3172 3173 3173 3173 3173 3174 3174 3174 3174 3174 3174 3174 3174 3174 3173 3173 3173 3173 3172 3172 3172 3171 3171 3171 3171 3171 3171 3170 3170 3169 3169 3168 3167 3166 3165 3165 3164 3163 3163 3162 3162 3162
3153 3153 3154 3155 3155 3156 3156 3156 3157 3157 3158 3158 3158 3158 3158 3159 3159 3160 3161 3162 3163 3163 3164 3164 3165 3165 3166 3167 3167 3168 3168 3169 3169 3170 3170 3170 3170 3171 3171 3172 3172 3172 3173 3173 3174 3174 3174 3174 3174 3175 3175 3175 3175 3175 3175 3174 3174 3174 3174 3174 3173 3173 3173 3173 3172 3172 3172 3173 3172 3171 3171 3171 3170 3169 3168 3167 3167 3166 3165 3164 3164 3163 3163 3162 3162
3151 3152 3153 3154 3154 3155 3155 3156 3156 3157 3157 3158 3158 3158 3158 3159 3160 3160 3161 3162 3163 3164 3164 3165 3165 3166 3166 3167 3168 3168 3169 3170 3170 3170 3170 3171 3171 3171 3172 3173 3173 3173 3174 3174 3175 3175 3175 3175 3175 3175 3176 3176 3176 3176 3175 3175 3175 3175 3175 3174 3174 3174 3174 3174 3173 3173 3173 3173 3173 3172 3173 3172 3171 3170 3169 3168 3168 3167 3166 3165 3164 3164 3163 3163 3162
3150 3151 3152 3152 3153 3154 3155 3155 3156 3156 3156 3157 3157 3158 3158 3159 3160 3161 3162 3163 3163 3164 3164 3165 3166 3166 3167 3167 3168 3169 3170 3170 3170 3171 3171 3171 3172 3172 3173 3174 3174 3174 3175 3175 3176 3176 3176 3176 3176 3176 3176 3177 3177 3177 3176 3176 3176 3176 3176 3175 3175 3175 3175 3174 3174 3174 3174 3174 3173 3174 3174 3173 3173 3172 3171 3169 3168 3168 3167 3166 3165 3164 3164 3163 3163
3149 3150 3151 3151 3152 3153 3154 3155 3155 3156 3156 3156 3157 3158 3158 3159 3160 3161 3162 3163 3164 3164 3165 3165 3166 3166 3167 3168 3169 3170 3170 3170 3171 3171 3171 3172 3172 3173 3174 3175 3175 3175 3175 3176 3176 3177 3177 3177 3177 3177 3177 3178 3178 3177 3177 3177 3177 3177 3177 3176 3176 3176 3175 3175 3174 3175 3175 3174 3175 3175 3175 3174 3173 3172 3171 3170 3169 3168 3167 3166 3166 3165 3164 3164 3163
3148 3148 3149 3150 3151 3151 3153 3154 3155 3155 3155 3156 3157 3157 3158 3159 3161 3162 3163 3164 3164 3165 3165 3166 3166 3167 3168 3169 3170 3170 3171 3171 3171 3171 3172 3172 3173 3174 3175 3175 3176 3176 3176 3177 3177 3177 3178 3178 3178 3178 3178 3179 3179 3178 3178 3178 3178 3178 3178 3177 3177 3177 3176 3176 3175 3176 3175 3175 3176 3176 3175 3175 3174 3173 3172 3171 3170 3169 3168 3167 3166 3166 3165 3164 3164
3146 3147 3148 3149 3150 3150 3152 3154 3154 3154 3155 3155 3156 3157 3158 3160 3161 3162 3163 3164 3165 3165 3166 3166 3167 3168 3168 3169 3170 3171 3171 3171 3172 3172 3172 3173 3174 3175 3176 3176 3176 3177 3177 3178 3178 3178 3179 3179 3179 3179 3179 3180 3180 3180 3179 3179 3179 3179 3179 3178 3178 3178 3177 3177 3177 3177 3176 3177 3177 3176 3176 3176 3175 3174 3173 3172 3171 3170 3169 3167 3167 3166 3166 3165 3164
3145 3146 3146 3147 3148 3149 3150 3153 3153 3153 3154 3155 3156 3157 3158 3159 3161 3162 3163 3164 3165 3165 3166 3167 3167 3168 3169 3170 3171 3171 3171 3172 3172 3173 3173 3174 3174 3175 3176 3177 3177 3178 3178 3178 3179 3179 3179 3180 3180 3180 3181 3181 3181 3181 3181 3180 3180 3180 3180 3179 3179 3179 3178 3178 3178 3178 3178 3178 3177 3177 3177 3176 3175 3174 3173 3172 3171 3170 3169 3168 3168 3167 3166 3166 3165
3144 3144 3145 3146 3147 3148 3150 3151 3152 3152 3153 3154 3156 3156 3158 3159 3160 3162 3163 3164 3165 3165 3166 3167 3167 3168 3169 3170 3171 3172 3172 3172 3173 3173 3173 3174 3175 3176 3177 3177 3178 3179 3179 3179 3179 3180 3180 3181 3181 3181 3182 3182 3182 3182 3182 3182 3181 3181 3181 3181 3180 3180 3180 3180 3179 3179 3179 3179 3179 3178 3178 3176 3175 3175 3174 3173 3172 3171 3170 3169 3169 3168 3167 3166 3166
3142 3143 3144 3145 3146 3147 3149 3151 3152 3152 3152 3153 3155 3156 3158 3159 3160 3162 3162 3163 3164 3165 3166 3167 3168 3169 3170 3171 3171 3172 3172 3173 3173 3173 3174 3175 3176 3177 3178 3178 3179 3180 3180 3180 3180 3181 3181 3182 3182 3183 3183 3183 3183 3183 3183 3183 3183 3183 3182 3182 3182 3181 3181 3180 3180 3181 3181 3180 3180 3179 3178 3177 3176 3176 3174 3173 3172 3172 3171 3170 3169 3169 3168 3167 3166
3140 3141 3142 3143 3145 3146 3148 3150 3151 3151 3151 3153 3154 3156 3158 3159 3160 3161 3162 3163 3164 3165 3166 3167 3168 3169 3170 3171 3172 3172 3173 3173 3174 3174 3175 3176 3177 3178 3178 3179 3180 3180 3180 3181 3181 3182 3182 3183 3184 3184 3184 3184 3184 3184 3184 3184 3184 3184 3184 3183 3183 3183 3183 3181 3181 3182 3182 3181 3181 3180 3180 3178 3177 3176 3175 3174 3173 3172 3171 3170 3170 3169 3168 3168 3167
3138 3139 3140 3142 3143 3144 3147 3149 3150 3149 3150 3152 3154 3155 3157 3158 3159 3161 3162 3163 3164 3165 3166 3167 3168 3169 3169 3170 3171 3172 3173 3174 3174 3175 3176 3177 3178 3178 3179 3180 3180 3181 3181 3182 3182 3183 3183 3184 3185 3185 3185 3185 3185 3185 3185 3185 3185 3185 3185 3184 3184 3184 3184 3183 3183 3183 3183 3183 3182 3181 3180 3179 3178 3177 3176 3174 3173 3173 3172 3171 3170 3170 3169 3168 3168
3137 3137 3139 3140 3142 3143 3145 3147 3148 3148 3149 3151 3153 3155 3156 3158 3159 3160 3161 3162 3165 3166 3166 3167 3168 3169 3170 3170 3171 3172 3173 3174 3175 3176 3177 3178 3178 3179 3180 3180 3181 3181 3182 3183 3183 3184 3184 3185 3186 3186 3186 3186 3186 3186 3186 3186 3186 3186 3186 3185 3185 3185 3184 3184 3185 3184 3184 3184 3183 3182 3181 3180 3179 3178 3177 3175 3174 3173 3172 3171 3171 3170 3170 3169 3168
3135 3136 3137 3139 3140 3142 3144 3146 3146 3147 3148 3150 3152 3154 3156 3158 3159 3160 3161 3162 3164 3166 3167 3167 3168 3170 3170 3171 3171 3172 3173 3174 3175 3176 3177 3178 3179 3180 3180 3181 3181 3182 3183 3183 3184 3185 3185 3186 3187 3187 3187 3187 3187 3187 3187 3187 3187 3187 3187 3186 3186 3185 3185 3185 3186 3185 3185 3185 3183 3182 3181 3180 3179 3178 3177 3176 3175 3174 3173 3172 3171 3171 3170 3170 3169
3133 3134 3136 3137 3138 3140 3142 3144 3145 3146 3147 3149 3151 3153 3155 3157 3158 3160 3160 3161 3163 3165 3167 3167 3168 3169 3171 3171 3172 3172 3173 3175 3175 3176 3178 3179 3180 3180 3181 3181 3182 3182 3183 3184 3185 3185 3186 3187 3188 3188 3188 3188 3188 3188 3188 3188 3188 3188 3187 3187 3186 3186 3187 3186 3186 3187 3186 3185 3184 3183 3182 3181 3179 3178 3178 3177 3176 3175 3174 3173 3172 3171 3171 3170 3170
3131 3132 3134 3135 3136 3138 3140 3143 3144 3144 3146 3148 3150 3152 3154 3155 3157 3159 3160 3161 3163 3165 3167 3168 3168 3169 3171 3171 3172 3172 3173 3175 3176 3177 3178 3179 3180 3181 3181 3181 3182 3183 3184 3184 3185 3186 3187 3188 3188 3189 3189 3189 3189 3189 3189 3189 3189 3189 3188 3187 3187 3187 3188 3187 3187 3187 3187 3186 3185 3183 3182 3181 3179 3179 3178 3177 3177 3176 3175 3173 3172 3171 3171 3171 3170
3129 3130 3131 3132 3133 3135 3138 3141 3142 3143 3144 3146 3148 3150 3152 3154 3156 3157 3159 3161 3163 3165 3166 3167 3168 3170 3170 3171 3172 3172 3173 3174 3176 3177 3178 3179 3180 3181 3181 3182 3183 3183 3184 3185 3186 3186 3187 3188 3189 3189 3190 3190 3190 3190 3190 3190 3190 3189 3188 3188 3188 3188 3188 3187 3188 3188 3187 3186 3185 3184 3183 3181 3180 3179 3178 3178 3177 3176 3175 3174 3173 3172 3171 3171 3171
3127 3127 3128 3129 3130 3133 3136 3139 3140 3141 3143 3145 3147 3148 3150 3152 3155 3156 3158 3160 3162 3164 3165 3167 3168 3170 3170 3171 3172 3172 3173 3174 3176 3177 3178 3179 3180 3181 3182 3182 3183 3184 3184 3185 3186 3187 3188 3189 3189 3190 3190 3191 3191 3190 3190 3190 3190 3190 3189 3189 3189 3189 3189 3188 3188 3188 3187 3187 3186 3184 3183 3181 3180 3179 3179 3178 3177 3177 3176 3175 3174 3173 3172 3172 3171
3123 3123 3123 3125 3128 3131 3133 3136 3138 3140 3142 3144 3146 3147 3149 3151 3153 3155 3157 3159 3161 3162 3164 3166 3169 3169 3169 3170 3171 3172 3173 3174 3176 3177 3178 3179 3180 3181 3182 3183 3183 3184 3185 3186 3187 3188 3188 3189 3190 3190 3191 3191 3191 3191 3191 3191 3191 3191 3190 3190 3190 3189 3189 3189 3189 3188 3188 3187 3186 3185 3183 3181 3180 3179 3179 3178 3178 3177 3177 3176 3174 3174 3173 3172 3172
3120 3119 3119 3121 3124 3128 3131 3134 3136 3139 3141 3142 3145 3146 3148 3151 3153 3154 3156 3158 3159 3161 3163 3166 3168 3169 3168 3169 3170 3171 3173 3174 3175 3177 3178 3179 3180 3181 3182 3183 3184 3184 3185 3187 3188 3188 3189 3189 3190 3191 3191 3192 3192 3192 3192 3192 3192 3192 3191 3191 3190 3190 3190 3190 3189 3189 3188 3187 3187 3185 3183 3182 3181 3180 3179 3178 3178 3177 3177 3176 3175 3174 3173 3173 3173
3121 3122 3124 3124 3123 3125 3130 3134 3135 3138 3140 3141 3143 3145 3148 3150 3151 3153 3156 3158 3159 3161 3164 3166 3168 3168 3168 3168 3169 3171 3172 3174 3175 3176 3177 3179 3180 3181 3182 3183 3184 3185 3186 3187 3188 3188 3189 3190 3191 3191 3192 3192 3192 3192 3192 3193 3193 3192 3192 3191 3191 3190 3191 3191 3190 3190 3189 3188 3187 3185 3183 3182 3181 3180 3179 3179 3178 3177 3177 3176 3175 3175 3174 3173 3173
3122 3124 3126 3127 3127 3126 3127 3130 3134 3137 3139 3141 3143 3145 3147 3148 3150 3152 3155 3157 3158 3161 3164 3166 3167 3168 3168 3168 3170 3171 3172 3173 3174 3176 3177 3178 3179 3181 3182 3183 3184 3185 3186 3187 3188 3188 3189 3190 3191 3191 3192 3192 3192 3193 3193 3194 3194 3193 3192 3192 3191 3191 3192 3192 3191 3190 3189 3188 3187 3185 3184 3183 3181 3180 3179 3179 3178 3178 3177 3176 3176 3175 3174 3174 3173
3119 3120 3121 3124 3127 3129 3127 3127 3132 3137 3138 3140 3143 3144 3145 3147 3149 3151 3154 3156 3158 3161 3163 3165 3166 3167 3167 3168 3170 3171 3172 3173 3174 3175 3177 3178 3179 3180 3182 3183 3184 3185 3186 3187 3188 3189 3189 3190 3191 3192 3192 3193 3193 3193 3194 3194 3194 3194 3193 3193 3192 3192 3192 3192 3191 3191 3190 3188 3187 3185 3184 3183 3182 3181 3180 3179 3179 3178 3177 3177 3176 3175 3175 3174 3174
3116 3117 3119 3122 3125 3130 3132 3131 3131 3135 3139 3140 3142 3143 3144 3147 3149 3150 3153 3156 3158 3160 3162 3164 3165 3166 3166 3167 3169 3171 3172 3173 3173 3174 3176 3177 3179 3180 3182 3183 3184 3185 3186 3187 3188 3189 3190 3191 3191 3192 3193 3193 3193 3194 3194 3194 3194 3194 3194 3193 3193 3193 3193 3192 3192 3191 3190 3189 3187 3186 3184 3183 3182 3181 3180 3180 3179 3178 3178 3177 3176 3176 3175 3175 3174
3114 3116 3118 3120 3123 3128 3134 3135 3133 3133 3138 3140 3140 3143 3145 3147 3148 3150 3153 3155 3157 3159 3161 3162 3163 3164 3165 3167 3169 3170 3171 3173 3174 3174 3175 3176 3178 3180 3182 3183 3184 3185 3186 3187 3188 3189 3190 3191 3191 3192 3193 3193 3194 3194 3194 3194 3194 3194 3194 3193 3193 3193 3193 3193 3192 3191 3190 3189 3188 3186 3185 3184 3183 3182 3181 3180 3179 3178 3178 3177 3177 3176 3175 3175 3175
3113 3115 3117 3117 3121 3127 3133 3137 3137 3134 3135 3138 3141 3143 3144 3147 3148 3150 3152 3154 3156 3158 3159 3161 3162 3163 3165 3166 3168 3169 3171 3172 3174 3175 3175 3176 3177 3180 3181 3182 3183 3184 3185 3187 3188 3189 3190 3191 3192 3193 3193 3194 3194 3194 3194 3194 3194 3194 3194 3194 3193 3194 3194 3193 3192 3192 3190 3189 3188 3187 3185 3184 3183 3182 3181 3181 3180 3179 3178 3178 3177 3176 3176 3175 3175
3113 3116 3118 3118 3121 3126 3132 3136 3139 3139 3135 3135 3139 3142 3144 3146 3148 3150 3151 3153 3156 3157 3159 3160 3161 3163 3164 3166 3167 3169 3170 3172 3173 3175 3175 3175 3176 3178 3180 3181 3183 3184 3185 3186 3187 3189 3190 3191 3192 3193 3193 3194 3194 3194 3194 3194 3194 3194 3194 3194 3194 3194 3194 3193 3192 3192 3191 3190 3189 3187 3185 3184 3184 3183 3182 3181 3180 3179 3179 3178 3177 3176 3176 3175 3175
3114 3116 3118 3120 3123 3126 3130 3134 3139 3141 3140 3136 3136 3140 3144 3146 3147 3149 3150 3152 3154 3156 3158 3159 3160 3162 3163 3165 3167 3168 3169 3171 3172 3174 3175 3176 3176 3177 3179 3181 3182 3183 3184 3185 3187 3188 3189 3190 3191 3192 3193 3193 3194 3194 3194 3195 3195 3194 3194 3194 3194 3194 3194 3193 3192 3192 3191 3190 3189 3187 3186 3185 3184 3183 3182 3181 3181 3180 3179 3178 3177 3177 3176 3175 3176
3114 3115 3117 3120 3123 3124 3127 3132 3136 3139 3141 3141 3137 3137 3142 3146 3147 3148 3149 3151 3153 3155 3157 3158 3159 3161 3162 3164 3166 3167 3168 3170 3171 3173 3174 3175 3177 3177 3178 3180 3182 3183 3184 3185 3186 3188 3189 3190 3191 3192 3193 3193 3193 3194 3194 3195 3195 3195 3194 3194 3194 3194 3194 3193 3192 3192 3190 3190 3190 3187 3186 3185 3185 3184 3183 3182 3181 3180 3180 3179 3178 3177 3176 3176 3176
3112 3113 3116 3118 3120 3121 3124 3130 3134 3136 3138 3141 3141 3139 3139 3142 3146 3147 3148 3150 3151 3153 3155 3157 3158 3160 3161 3163 3164 3166 3167 3169 3170 3172 3173 3175 3176 3177 3178 3179 3181 3182 3183 3184 3186 3187 3189 3189 3190 3192 3192 3193 3193 3194 3194 3195 3195 3195 3195 3195 3194 3194 3194 3193 3192 3192 3191 3190 3190 3188 3187 3186 3185 3184 3183 3182 3182 3181 3180 3179 3178 3178 3177 3176 3177
3111 3113 3114 3115 3118 3119 3123 3129 3133 3135 3136 3138 3142 3142 3140 3138 3141 3146 3147 3148 3150 3151 3153 3155 3157 3158 3160 3161 3163 3164 3166 3167 3169 3171 3172 3174 3175 3177 3178 3179 3180 3181 3182 3184 3185 3187 3188 3189 3190 3191 3192 3192 3193 3194 3194 3194 3194 3194 3194 3195 3194 3194 3193 3193 3192 3192 3191 3189 3188 3187 3187 3186 3185 3184 3183 3182 3182 3182 3181 3180 3179 3178 3178 3177 3177
3110 3111 3112 3113 3116 3118 3123 3129 3132 3134 3135 3137 3139 3142 3143 3139 3138 3142 3145 3146 3147 3149 3151 3153 3155 3157 3158 3160 3162 3163 3164 3166 3168 3170 3171 3172 3174 3176 3177 3178 3179 3180 3182 3183 3185 3186 3188 3189 3190 3191 3192 3192 3193 3193 3194 3194 3194 3194 3194 3194 3194 3194 3194 3193 3192 3192 3191 3189 3188 3187 3187 3186 3185 3185 3184 3183 3182 3182 3182 3181 3180 3179 3179 3178 3178
3109 3109 3110 3111 3113 3117 3122 3128 3131 3133 3135 3137 3139 3141 3143 3140 3137 3138 3140 3143 3145 3146 3149 3151 3153 3155 3157 3158 3160 3161 3163 3165 3167 3168 3170 3172 3173 3174 3176 3177 3179 3180 3181 3182 3184 3186 3187 3189 3190 3191 3191 3192 3193 3193 3193 3194 3194 3194 3194 3194 3194 3194 3194 3193 3193 3192 3191 3189 3188 3187 3186 3186 3186 3185 3185 3184 3183 3183 3182 3181 3180 3180 3180 3179 3179
3108 3107 3108 3108 3110 3114 3120 3125 3128 3131 3133 3135 3137 3139 3141 3140 3138 3135 3135 3137 3140 3143 3146 3148 3151 3153 3155 3157 3158 3160 3162 3164 3165 3167 3169 3171 3172 3174 3174 3176 3178 3179 3180 3182 3183 3185 3186 3188 3189 3190 3191 3192 3192 3193 3193 3193 3193 3194 3194 3194 3194 3194 3194 3193 3193 3192 3191 3189 3187 3184 3184 3185 3186 3185 3185 3185 3184 3183 3183 3182 3181 3181 3180 3180 3179
3109 3107 3107 3108 3109 3113 3118 3123 3126 3128 3131 3132 3134 3136 3138 3138 3138 3136 3134 3133 3135 3139 3143 3146 3149 3151 3154 3155 3157 3159 3161 3162 3164 3166 3168 3170 3171 3173 3173 3175 3177 3178 3180 3181 3183 3184 3186 3187 3188 3190 3190 3191 3192 3192 3193 3193 3193 3194 3194 3194 3194 3194 3194 3193 3193 3192 3191 3190 3188 3185 3182 3183 3185 3185 3185 3185 3185 3184 3183 3183 3182 3181 3180 3180 3179
3109 3108 3109 3110 3111 3112 3116 3120 3124 3126 3127 3129 3131 3133 3135 3136 3136 3135 3133 3132 3133 3136 3140 3143 3146 3149 3152 3153 3155 3157 3159 3161 3163 3165 3167 3169 3170 3171 3173 3174 3175 3177 3179 3181 3182 3184 3185 3186 3188 3189 3190 3191 3191 3192 3192 3192 3193 3193 3194 3194 3194 3194 3194 3193 3193 3192 3191 3190 3188 3187 3185 3183 3184 3186 3185 3185 3185 3184 3184 3183 3182 3181 3181 3180 3180
3109 3109 3110 3110 3111 3111 3114 3118 3122 3124 3125 3127 3129 3131 3133 3134 3134 3133 3131 3130 3131 3134 3137 3141 3144 3147 3149 3151 3153 3155 3157 3159 3161 3163 3165 3167 3169 3170 3172 3173 3174 3175 3177 3179 3181 3183 3184 3185 3187 3188 3189 3190 3190 3191 3192 3192 3192 3193 3193 3194 3194 3194 3194 3193 3193 3192 3192 3191 3189 3188 3186 3184 3184 3186 3186 3185 3185 3185 3184 3184 3183 3182 3181 3181 3180
3109 3110 3111 3111 3110 3109 3112 3117 3120 3122 3124 3126 3128 3131 3133 3134 3132 3131 3130 3129 3130 3134 3137 3140 3142 3145 3147 3150 3151 3153 3155 3157 3159 3161 3163 3165 3167 3169 3171 3172 3173 3174 3176 3178 3180 3182 3183 3185 3186 3187 3188 3189 3190 3191 3191 3192 3192 3192 3193 3194 3194 3193 3193 3193 3193 3192 3191 3191 3190 3188 3187 3185 3184 3185 3185 3185 3186 3186 3185 3184 3184 3183 3181 3181 3181
3109 3110 3111 3112 3111 3108 3109 3115 3119 3121 3123 3124 3125 3128 3130 3131 3131 3130 3130 3130 3132 3135 3138 3140 3142 3144 3146 3148 3150 3151 3153 3155 3157 3159 3161 3163 3164 3167 3169 3171 3172 3173 3174 3176 3178 3180 3182 3183 3185 3186 3187 3188 3189 3190 3191 3191 3191 3192 3192 3193 3193 3193 3193 3193 3192 3192 3191 3191 3190 3189 3188 3186 3185 3185 3185 3185 3186 3186 3186 3185 3184 3183 3182 3181 3181
3108 3110 3111 3112 3113 3112 3111 3114 3118 3120 3122 3121 3120 3121 3125 3128 3130 3130 3131 3132 3134 3136 3138 3140 3142 3144 3145 3147 3148 3149 3151 3153 3154 3156 3158 3160 3162 3164 3167 3169 3170 3172 3173 3175 3177 3179 3180 3182 3183 3185 3186 3187 3188 3189 3190 3191 3191 3191 3191 3192 3193 3192 3192 3192 3192 3192 3192 3191 3190 3189 3188 3187 3186 3185 3185 3185 3186 3186 3186 3185 3185 3184 3183 3182 3182
3107 3108 3109 3110 3112 3114 3115 3116 3117 3119 3120 3120 3119 3120 3124 3127 3129 3130 3131 3132 3134 3135 3137 3139 3141 3143 3144 3145 3146 3147 3149 3150 3152 3153 3155 3157 3159 3161 3164 3166 3168 3170 3171 3172 3175 3177 3179 3180 3182 3183 3185 3185 3186 3188 3189 3190 3190 3190 3191 3192 3192 3192 3192 3192 3192 3192 3191 3191 3191 3190 3189 3188 3187 3185 3184 3185 3186 3186 3186 3186 3185 3184 3183 3182 3182
3104 3105 3107 3108 3110 3112 3115 3116 3117 3117 3118 3120 3120 3122 3124 3126 3127 3128 3129 3130 3132 3134 3136 3138 3140 3141 3143 3144 3145 3146 3147 3148 3150 3151 3153 3154 3156 3158 3161 3163 3165 3167 3169 3170 3173 3175 3177 3179 3180 3182 3183 3184 3185 3186 3188 3189 3189 3189 3190 3191 3191 3192 3191 3191 3191 3191 3191 3191 3190 3190 3189 3188 3187 3186 3185 3185 3185 3186 3186 3186 3185 3184 3184 3182 3182
3103 3103 3104 3106 3108 3110 3112 3113 3115 3117 3118 3119 3120 3122 3122 3123 3124 3125 3126 3128 3130 3131 3133 3136 3138 3140 3141 3143 3143 3144 3145 3147 3148 3149 3150 3152 3154 3156 3158 3161 3163 3165 3167 3169 3171 3173 3175 3177 3178 3180 3182 3183 3184 3185 3186 3187 3188 3188 3189 3189 3190 3191 3191 3191 3191 3190 3190 3190 3190 3189 3189 3188 3187 3186 3185 3185 3185 3186 3186 3186 3185 3185 3184 3183 3182
3101 3102 3102 3104 3106 3107 3109 3111 3112 3114 3116 3117 3119 3120 3119 3120 3122 3123 3124 3125 3127 3129 3131 3134 3136 3137 3139 3140 3141 3142 3143 3145 3146 3147 3148 3150 3152 3154 3156 3158 3161 3163 3164 3166 3169 3171 3173 3175 3176 3178 3180 3182 3183 3184 3185 3186 3187 3187 3187 3188 3189 3190 3190 3190 3190 3190 3189 3189 3189 3189 3188 3187 3187 3186 3185 3185 3186 3186 3186 3186 3185 3185 3184 3183 3182
3098 3099 3100 3101 3103 3104 3106 3107 3109 3111 3113 3115 3116 3116 3116 3117 3119 3120 3121 3123 3124 3126 3129 3131 3133 3135 3136 3137 3138 3139 3141 3142 3143 3145 3146 3147 3149 3151 3153 3155 3158 3160 3162 3164 3166 3169 3171 3173 3174 3176 3178 3179 3181 3182 3183 3184 3185 3186 3186 3187 3188 3188 3188 3189 3190 3189 3189 3189 3188 3188 3187 3187 3186 3186 3185 3185 3186 3186 3186 3186 3185 3185 3184 3184 3183
3095 3096 3097 3098 3099 3101 3102 3104 3105 3107 3108 3111 3112 3113 3112 3114 3115 3116 3117 3119 3121 3124 3127 3128 3130 3131 3132 3133 3135 3136 3137 3139 3140 3142 3143 3144 3146 3148 3150 3152 3154 3157 3159 3161 3164 3167 3169 3170 3171 3173 3175 3177 3179 3180 3181 3183 3183 3184 3185 3185 3186 3187 3187 3188 3189 3189 3189 3189 3188 3187 3187 3186 3186 3186 3185 3185 3185 3185 3186 3186 3185 3185 3184 3183 3183
3091 3092 3093 3094 3096 3097 3099 3100 3101 3103 3104 3106 3108 3109 3109 3110 3112 3113 3114 3116 3118 3121 3123 3124 3125 3126 3127 3129 3131 3132 3133 3135 3137 3138 3140 3141 3143 3145 3147 3149 3151 3154 3156 3159 3161 3164 3166 3168 3169 3171 3173 3175 3177 3178 3179 3181 3182 3183 3184 3184 3185 3185 3186 3186 3187 3188 3188 3188 3188 3187 3186 3186 3185 3185 3185 3185 3185 3185 3185 3185 3185 3184 3184 3183 3182
3086 3088 3089 3091 3092 3093 3095 3096 3097 3099 3101 3102 3104 3105 3105 3106 3108 3109 3110 3112 3114 3116 3118 3118 3120 3122 3123 3125 3127 3129 3130 3131 3133 3135 3136 3138 3139 3141 3143 3145 3148 3150 3153 3155 3158 3161 3163 3165 3167 3169 3170 3172 3175 3176 3177 3179 3180 3181 3182 3183 3183 3184 3184 3185 3186 3186 3187 3187 3187 3187 3186 3185 3185 3185 3185 3184 3184 3184 3184 3184 3184 3184 3183 3183 3182
3081 3082 3084 3086 3087 3089 3090 3092 3093 3095 3096 3098 3100 3101 3102 3102 3104 3105 3107 3108 3110 3112 3113 3113 3116 3118 3120 3122 3124 3125 3126 3128 3129 3131 3133 3135 3136 3137 3139 3142 3144 3146 3149 3151 3155 3158 3161 3162 3164 3166 3167 3169 3172 3173 3175 3176 3178 3179 3180 3181 3181 3182 3183 3183 3184 3185 3185 3186 3186 3186 3185 3185 3185 3184 3184 3184 3183 3183 3183 3183 3183 3183 3182 3182 3182